Meteo Giornale » Osservazioni meteo Stati Uniti (USA) » Dutch Harbor
ore: 02:56 - Osservazioni Meteo Dutch Harbor
Lat. 53° 54' N Lon. 166° 33' W Alt. 4 metri s.l.m.
20 °C
Sereno
Temp. 24 Ore
17 °C
21 °C
Ovest/Sud-Ovest
48.1 Km/h
Dew point 15 °C
Umidità 72 %
Visibilità 10 Km
Il sole sorge alle ore 08:15
Il sole tramonta alle ore 21:56
| Data e Ora | Cielo e Fenomeni | T °C | DP °C | Um. % | Pres. hPa | Vis. km | Vento km/h | |
|---|---|---|---|---|---|---|---|---|
| Oggi h: 02:56 | Sereno | 20 | 15 | 72 | 1017 | 10 | O/SO 48.1 | |
| Oggi h: 01:56 | Sereno | 21 | 15 | 68 | 1018 | 10 | SO 38.8 | |
| Oggi h: 00:56 | Sereno | 21 | 14 | 64 | 1018 | 10 | S/SO 33.3 | |
| Ieri h: 23:56 | Coperto | 21 | 15 | 68 | 1018 | 10 | S/SO 31.5 | |
| Ieri h: 22:56 | Molto Nuvoloso | 21 | 15 | 68 | 1018 | 10 | SO 22.2 | |
| Ieri h: 21:56 | Poco Nuvoloso | 21 | 14 | 64 | 1018 | 10 | S/SO 31.5 | |
| Ieri h: 20:56 | Molto Nuvoloso | 21 | 15 | 68 | 1018 | 10 | S/SO 27.8 | |
| Ieri h: 19:56 | Molto Nuvoloso | 21 | 16 | 73 | 1018 | 10 | SO 27.8 | |
| Ieri h: 18:56 | Molto Nuvoloso | 20 | 15 | 72 | 1019 | 10 | O 24 | |
| Ieri h: 17:56 | Molto Nuvoloso | 20 | 16 | 77 | 1019 | 10 | SO 29.6 | |
| Ieri h: 16:56 | Nuvoloso | 20 | 16 | 77 | 1020 | 10 | S/SO 24 | |
| Ieri h: 16:11 | Nuvoloso | 21 | 15 | 68 | 1020 | 10 | SO 24 | |
| Ieri h: 15:56 | Molto Nuvoloso | 19 | 16 | 82 | 1020 | 10 | S 14.8 | |
| Ieri h: 14:56 | Molto Nuvoloso | 19 | 16 | 82 | 1021 | 10 | O/SO 14.8 | |
| Ieri h: 13:56 | Pioggia | 17 | 14 | 82 | 1021 | 14 | SO 24 | |
| Ieri h: 12:56 | Pioggia Foschia | 17 | 15 | 88 | 1021 | 10 | S 24 | |
| Ieri h: 11:56 | Pioggia | 17 | 14 | 82 | 1020 | 10 | O/SO 22.2 | |
| Ieri h: 10:56 | Coperto | 18 | 15 | 82 | 1020 | 10 | O/SO 22.2 | |
| Ieri h: 09:56 | Pioggia Foschia | 19 | 16 | 82 | 1019 | 8 | SO 24 | |
| Ieri h: 09:35 | Pioggia Foschia | 19 | 16 | 82 | 1019 | 8 | SO 22.2 | |
| Ieri h: 09:27 | Pioggia | 19 | 16 | 82 | 1019 | 11 | O/SO 16.7 | |
| Ieri h: 08:56 | Pioggia | 19 | 16 | 82 | 1019 | 8 | S/SO 29.6 | |
| Ieri h: 08:06 | Coperto | 19 | 16 | 82 | 1019 | 10 | SO 29.6 | |
| Ieri h: 07:56 | Coperto | 19 | 16 | 82 | 1019 | 10 | S/SO 29.6 | |
| Ieri h: 06:56 | Coperto | 20 | 16 | 77 | 1019 | 10 | O/SO 29.6 | |
| Ieri h: 05:56 | Coperto | 19 | 16 | 82 | 1020 | 10 | SO 35.2 | |
| Ieri h: 04:56 | Coperto | 20 | 16 | 77 | 1020 | 10 | S/SO 27.8 | |
| Ieri h: 04:49 | Coperto | 19 | 16 | 82 | 1020 | 10 | S/SO 22.2 | |
| Ieri h: 03:56 | Nuvoloso | 21 | 15 | 68 | 1021 | 10 | S 37 | |



